• In Deutschland
  • Länderverzeichnis
  • Für 7 Tage
  • Wassertemperatur
  • Satellitenkarten
  • Wetterkarte
  • Widgets
  • user-avatar
    Anmelden

    Stündliche Wetter Harkovskiy 2-y

    Heute, 21 August, Dienstag

    Zeit Temperatur Niederschläge Wind Luftdruck Luftfeuchtigkeit
    00:00 +19°C° 0 mm 3 m/S 759 mmHg 33%
    01:00 +19°C° 0 mm 3 m/S 759 mmHg 35%
    02:00 +18°C° 0 mm 3 m/S 759 mmHg 37%
    03:00 +18°C° 0 mm 3 m/S 759 mmHg 39%
    04:00 +18°C° 0 mm 3 m/S 759 mmHg 43%
    05:00 +17°C° 0 mm 3 m/S 759 mmHg 46%
    06:00 +17°C° 0 mm 3 m/S 759 mmHg 50%
    07:00 +20°C° 0 mm 4 m/S 759 mmHg 46%
    08:00 +22°C° 0 mm 4 m/S 759 mmHg 42%
    09:00 +26°C° 0 mm 5 m/S 759 mmHg 39%
    10:00 +27°C° 0 mm 5 m/S 759 mmHg 34%
    11:00 +29°C° 0 mm 6 m/S 759 mmHg 30%
    12:00 +30°C° 0 mm 6 m/S 758 mmHg 26%
    13:00 +32°C° 0 mm 5 m/S 758 mmHg 24%
    14:00 +33°C° 0 mm 5 m/S 757 mmHg 23%
    15:00 +33°C° 0 mm 5 m/S 757 mmHg 21%
    16:00 +33°C° 0 mm 4 m/S 757 mmHg 23%
    17:00 +32°C° 0 mm 4 m/S 756 mmHg 24%
    18:00 +31°C° 0 mm 3 m/S 756 mmHg 25%
    19:00 +29°C° 0 mm 3 m/S 756 mmHg 29%
    20:00 +27°C° 0 mm 3 m/S 756 mmHg 32%
    21:00 +25°C° 0 mm 2 m/S 756 mmHg 36%
    22:00 +24°C° 0 mm 2 m/S 756 mmHg 37%
    23:00 +24°C° 0 mm 2 m/S 756 mmHg 39%

    Morgen, 22 August, Mittwoch

    Zeit Temperatur Niederschläge Wind Luftdruck Luftfeuchtigkeit
    00:00 +22°C° 0 mm 3 m/S 757 mmHg 41%
    01:00 +22°C° 0 mm 3 m/S 756 mmHg 44%
    02:00 +21°C° 0 mm 3 m/S 756 mmHg 48%
    03:00 +21°C° 0 mm 3 m/S 756 mmHg 51%
    04:00 +21°C° 0 mm 2 m/S 757 mmHg 55%
    05:00 +20°C° 0 mm 2 m/S 757 mmHg 59%
    06:00 +20°C° 0 mm 2 m/S 757 mmHg 63%
    07:00 +23°C° 0 mm 2 m/S 757 mmHg 57%
    08:00 +26°C° 0 mm 2 m/S 757 mmHg 51%
    09:00 +28°C° 0 mm 2 m/S 757 mmHg 45%
    10:00 +30°C° 0 mm 2 m/S 757 mmHg 40%
    11:00 +32°C° 0 mm 1 m/S 757 mmHg 35%
    12:00 +33°C° 0 mm 1 m/S 756 mmHg 30%
    13:00 +34°C° 0 mm 1 m/S 756 mmHg 28%
    14:00 +35°C° 0 mm 2 m/S 756 mmHg 26%
    15:00 +36°C° 0 mm 2 m/S 755 mmHg 23%
    16:00 +36°C° 0 mm 2 m/S 756 mmHg 22%
    17:00 +35°C° 0 mm 2 m/S 756 mmHg 22%
    18:00 +35°C° 0 mm 3 m/S 756 mmHg 21%
    19:00 +32°C° 0 mm 4 m/S 756 mmHg 30%
    20:00 +29°C° 0 mm 5 m/S 757 mmHg 39%
    21:00 +26°C° 0 mm 6 m/S 757 mmHg 48%
    22:00 +24°C° 0 mm 6 m/S 758 mmHg 51%
    23:00 +23°C° 0 mm 6 m/S 758 mmHg 54%

    übermorgen, 23 August, Donnerstag

    Zeit Temperatur Niederschläge Wind Luftdruck Luftfeuchtigkeit
    00:00 +22°C° 0 mm 5 m/S 758 mmHg 58%
    01:00 +22°C° 0 mm 5 m/S 759 mmHg 56%
    02:00 +21°C° 0 mm 5 m/S 759 mmHg 54%
    03:00 +21°C° 0 mm 5 m/S 759 mmHg 53%
    04:00 +20°C° 0 mm 5 m/S 760 mmHg 51%
    05:00 +20°C° 0 mm 5 m/S 760 mmHg 49%
    06:00 +20°C° 0 mm 5 m/S 760 mmHg 47%
    07:00 +21°C° 0 mm 6 m/S 760 mmHg 42%
    08:00 +23°C° 0 mm 6 m/S 761 mmHg 37%
    09:00 +24°C° 0 mm 6 m/S 761 mmHg 32%
    10:00 +26°C° 0 mm 6 m/S 761 mmHg 29%
    11:00 +28°C° 0 mm 6 m/S 761 mmHg 26%
    12:00 +29°C° 0 mm 6 m/S 760 mmHg 23%
    13:00 +29°C° 0 mm 6 m/S 760 mmHg 22%
    14:00 +30°C° 0 mm 6 m/S 760 mmHg 21%
    15:00 +30°C° 0 mm 6 m/S 760 mmHg 20%
    16:00 +30°C° 0 mm 6 m/S 760 mmHg 21%
    17:00 +29°C° 0 mm 6 m/S 760 mmHg 21%
    18:00 +28°C° 0 mm 6 m/S 760 mmHg 21%
    19:00 +26°C° 0 mm 5 m/S 760 mmHg 24%
    20:00 +25°C° 0 mm 5 m/S 760 mmHg 26%
    21:00 +22°C° 0 mm 4 m/S 761 mmHg 29%
    22:00 +21°C° 0 mm 5 m/S 761 mmHg 30%
    23:00 +21°C° 0 mm 5 m/S 761 mmHg 31%

    24 August, Freitag

    Zeit Temperatur Niederschläge Wind Luftdruck Luftfeuchtigkeit
    00:00 +21°C° 0 mm 5 m/S 761 mmHg 33%
    01:00 +20°C° 0 mm 5 m/S 761 mmHg 34%
    02:00 +20°C° 0 mm 5 m/S 761 mmHg 35%
    03:00 +19°C° 0 mm 5 m/S 761 mmHg 36%
    04:00 +19°C° 0 mm 5 m/S 761 mmHg 37%
    05:00 +19°C° 0 mm 5 m/S 761 mmHg 38%
    06:00 +17°C° 0 mm 5 m/S 761 mmHg 39%
    07:00 +21°C° 0 mm 6 m/S 761 mmHg 35%
    08:00 +23°C° 0 mm 6 m/S 761 mmHg 31%
    09:00 +26°C° 0 mm 7 m/S 761 mmHg 27%
    10:00 +27°C° 0 mm 7 m/S 761 mmHg 25%
    11:00 +28°C° 0 mm 7 m/S 760 mmHg 23%
    12:00 +30°C° 0 mm 7 m/S 760 mmHg 22%
    13:00 +30°C° 0 mm 7 m/S 760 mmHg 21%
    14:00 +32°C° 0 mm 6 m/S 759 mmHg 21%
    15:00 +32°C° 0 mm 6 m/S 759 mmHg 20%
    16:00 +30°C° 0 mm 6 m/S 759 mmHg 20%
    17:00 +30°C° 0 mm 6 m/S 759 mmHg 21%
    18:00 +29°C° 0 mm 5 m/S 758 mmHg 21%
    19:00 +27°C° 0 mm 5 m/S 759 mmHg 23%
    20:00 +25°C° 0 mm 5 m/S 759 mmHg 25%
    21:00 +22°C° 0 mm 4 m/S 759 mmHg 28%
    22:00 +22°C° 0 mm 4 m/S 759 mmHg 28%
    23:00 +21°C° 0 mm 4 m/S 759 mmHg 28%

    25 August, Samstag

    Zeit Temperatur Niederschläge Wind Luftdruck Luftfeuchtigkeit
    00:00 +20°C° 0 mm 4 m/S 759 mmHg 29%
    01:00 +20°C° 0 mm 4 m/S 759 mmHg 30%
    02:00 +20°C° 0 mm 4 m/S 758 mmHg 31%
    03:00 +19°C° 0 mm 4 m/S 758 mmHg 32%
    04:00 +19°C° 0 mm 4 m/S 759 mmHg 35%
    05:00 +19°C° 0 mm 4 m/S 759 mmHg 38%
    06:00 +18°C° 0 mm 4 m/S 759 mmHg 40%
    07:00 +21°C° 0 mm 5 m/S 759 mmHg 38%
    08:00 +23°C° 0 mm 6 m/S 759 mmHg 35%
    09:00 +26°C° 0 mm 6 m/S 759 mmHg 32%
    10:00 +28°C° 0 mm 7 m/S 759 mmHg 29%
    11:00 +29°C° 0 mm 7 m/S 758 mmHg 25%
    12:00 +30°C° 0 mm 7 m/S 758 mmHg 21%
    13:00 +32°C° 0 mm 7 m/S 758 mmHg 20%
    14:00 +32°C° 0 mm 7 m/S 757 mmHg 19%
    15:00 +32°C° 0 mm 7 m/S 757 mmHg 18%
    16:00 +32°C° 0 mm 6 m/S 757 mmHg 18%
    17:00 +30°C° 0 mm 6 m/S 757 mmHg 18%
    18:00 +30°C° 0 mm 6 m/S 756 mmHg 18%
    19:00 +28°C° 0 mm 5 m/S 757 mmHg 20%
    20:00 +26°C° 0 mm 5 m/S 757 mmHg 22%
    21:00 +23°C° 0 mm 4 m/S 757 mmHg 24%
    22:00 +22°C° 0 mm 4 m/S 757 mmHg 25%
    23:00 +22°C° 0 mm 4 m/S 757 mmHg 26%

    26 August, Sonntag

    Zeit Temperatur Niederschläge Wind Luftdruck Luftfeuchtigkeit
    00:00 +21°C° 0 mm 4 m/S 757 mmHg 27%
    01:00 +21°C° 0 mm 4 m/S 757 mmHg 30%
    02:00 +20°C° 0 mm 4 m/S 757 mmHg 33%
    03:00 +20°C° 0 mm 4 m/S 757 mmHg 36%
    04:00 +20°C° 0 mm 4 m/S 757 mmHg 38%
    05:00 +20°C° 0 mm 5 m/S 757 mmHg 41%
    06:00 +19°C° 0 mm 5 m/S 757 mmHg 43%
    07:00 +22°C° 0 mm 6 m/S 757 mmHg 38%
    08:00 +24°C° 0 mm 7 m/S 757 mmHg 33%
    09:00 +28°C° 0 mm 8 m/S 757 mmHg 28%
    10:00 +29°C° 0 mm 8 m/S 757 mmHg 26%
    11:00 +31°C° 0 mm 9 m/S 756 mmHg 24%
    12:00 +33°C° 0 mm 9 m/S 756 mmHg 22%
    13:00 +33°C° 0 mm 9 m/S 756 mmHg 22%
    14:00 +34°C° 0 mm 8 m/S 755 mmHg 21%
    15:00 +34°C° 0 mm 8 m/S 755 mmHg 21%
    16:00 +33°C° 0 mm 8 m/S 755 mmHg 23%
    17:00 +33°C° 0 mm 7 m/S 755 mmHg 25%
    18:00 +32°C° 0 mm 7 m/S 755 mmHg 26%
    19:00 +30°C° 0 mm 6 m/S 755 mmHg 28%
    20:00 +28°C° 0 mm 6 m/S 755 mmHg 31%
    21:00 +27°C° 0 mm 5 m/S 756 mmHg 33%
    22:00 +26°C° 0 mm 5 m/S 756 mmHg 32%
    23:00 +26°C° 0 mm 5 m/S 756 mmHg 31%
    Mehr zeigen